This is the latest recevied weather packets stored in our database for station/object CA3EAP-13. If no packets are shown the sender has not sent any weather packets the latest 10 day(s).
| Time | Temp. | Humidity | Pressure | Rain* | Wind** | Luminosity | Snow |
|---|---|---|---|---|---|---|---|
| 1788146293 | 59° F | 74% | 764.5 mmHg | - | - | - | - |
| 1788145693 | 59° F | 72% | 765.1 mmHg | - | - | - | - |
| 1788145093 | 59° F | 71% | 765.2 mmHg | - | - | - | - |
| 1788144493 | 59° F | 71% | 765.1 mmHg | - | - | - | - |
| 1788143893 | 59° F | 69% | 764.8 mmHg | - | - | - | - |
| 1788143293 | 59° F | 68% | 764.7 mmHg | - | - | - | - |
| 1788142693 | 59° F | 70% | 764.7 mmHg | - | - | - | - |
| 1788142093 | 58° F | 72% | 764.6 mmHg | - | - | - | - |
| 1788141493 | 59° F | 70% | 764.1 mmHg | - | - | - | - |
| 1788140893 | 59° F | 71% | 764.8 mmHg | - | - | - | - |
| 1788140293 | 59° F | 70% | 764.4 mmHg | - | - | - | - |
| 1788139693 | 60° F | 71% | 763.8 mmHg | - | - | - | - |
| 1788139093 | 60° F | 65% | 763.6 mmHg | - | - | - | - |
| 1788138493 | 60° F | 63% | 763.6 mmHg | - | - | - | - |
| 1788137893 | 60° F | 64% | 764.1 mmHg | - | - | - | - |
| 1788137293 | 60° F | 66% | 763.6 mmHg | - | - | - | - |
| 1788136693 | 60° F | 71% | 763.7 mmHg | - | - | - | - |
| 1788136093 | 60° F | 72% | 763.3 mmHg | - | - | - | - |
| 1788135493 | 61° F | 72% | 763.3 mmHg | - | - | - | - |
| 1788134893 | 60° F | 72% | 762.5 mmHg | - | - | - | - |
| 1788134293 | 61° F | 68% | 763.3 mmHg | - | - | - | - |
| 1788133693 | 60° F | 67% | 763 mmHg | - | - | - | - |
| 1788133093 | 62° F | 61% | 762.7 mmHg | - | - | - | - |
| 1788132493 | 62° F | 60% | 762.4 mmHg | - | - | - | - |
| 1788131893 | 61° F | 60% | 762.4 mmHg | - | - | - | - |
* Rain since midnight (hover to see other rain measurements)
** Current wind speed in m/s (hover to see current wind gust speed)